Location: La Trinit�
(48.1620°N, 3.4512°W)
Time: 16:15:41
(UTC+00:00)

USA 308 - Pass Details

Date: 08 May 2021
Orbit: 568 x 576 km, 54.0° (Epoch: 10 May)

Event Time Altitude Azimuth Distance (km) Brightness Sun altitude
Rises 21:14:04 0° 293° (WNW) 2,784 7.7 -13.6°
Reaches altitude 10° 21:16:24 10° 300° (WNW) 1,886 6.8 -13.9°
Maximum altitude 21:20:31 44° 14° (NNE) 799 3.9 -14.4°
Enters shadow 21:24:24 11° 86° (E) 1,794 5.1 -14.8°
